Vorticity
26 4 10 9 4 5 6 7 3 6 5 9 4 6 6 8 6 6 6 6 6 4 4 5 6 5 6 6 6 7 7 7 6 6 6 6 6 6 7 7 8 4 5
-11 17 7 7 4 6 8 4 4 4 8 7 7 6 5 5 4 3 5 5 4 5 6 6 6 6 6 6 6 6 6 6 5 5 5 5 5 6 7 7 8 7 6
-9 12 7 7 5 6 3 3 8 4 2 2 1 4 4 4 4 4 5 5 6 6 6 7 8 7 6 6 5 5 6 6 5 6 7 5 6 6 6 6 7 7 6
18 4 9 7 5 3 3 5 6 5 -0 0 4 4 5 5 5 5 5 6 6 7 8 8 7 7 7 7 7 6 7 7 7 7 9 6 5 5 5 5 5 5 6
21 3 12 5 5 4 6 7 4 6 -3 1 4 5 6 5 5 6 6 7 7 8 7 6 6 7 8 8 7 6 6 6 6 6 7 7 6 6 6 5 4 4 4
24 7 9 4 5 6 4 8 8 -0 -1 5 5 6 6 5 5 6 7 7 7 6 6 6 7 6 5 5 5 4 4 3 4 4 4 5 5 5 5 5 5 5 4
22 15 7 4 7 5 7 5 7 -7 1 5 6 6 5 5 6 8 7 6 5 6 6 6 6 6 5 4 3 3 3 3 4 4 5 5 5 5 5 5 5 5 4
8 13 9 5 4 6 5 3 5 4 5 6 7 6 6 6 7 7 6 5 5 6 6 7 5 5 4 3 3 4 4 4 5 6 6 7 6 6 6 7 7 7 6
22 5 7 8 0 5 2 3 4 5 6 6 7 6 6 7 7 6 4 5 6 6 6 6 5 4 3 3 4 5 6 5 6 6 6 7 7 7 7 6 6 6 7
11 14 12 7 1 1 1 2 3 3 5 7 6 5 6 8 7 5 4 5 5 6 5 5 4 5 4 5 5 5 5 6 6 5 6 6 5 5 6 6 8 9 9
-4 10 -4 10 4 3 2 3 3 3 5 6 6 4 7 8 6 4 5 5 6 4 5 4 5 6 6 6 6 6 6 6 5 5 6 5 5 6 7 7 8 8 8
9 6 6 4 5 5 5 4 6 4 5 7 5 5 6 8 5 4 4 5 4 4 3 4 5 5 5 5 6 5 6 6 6 6 6 5 6 7 7 7 8 7 7
24 5 3 7 2 3 7 7 7 6 5 7 5 5 7 9 6 3 5 4 4 2 4 4 5 5 5 5 5 6 6 6 6 6 6 5 7 7 7 6 5 5 6
3 10 14 1 7 5 4 9 7 7 5 6 6 6 7 7 5 4 4 3 3 3 3 4 4 4 4 4 4 5 6 7 7 7 6 5 7 6 5 5 6 6 7
14 9 3 9 2 -3 4 5 9 8 7 7 6 6 6 7 6 4 3 3 3 3 3 3 3 3 4 4 4 5 6 6 6 7 6 6 6 6 5 5 6 7 7
11 10 2 6 6 5 11 4 9 10 7 7 6 5 6 6 6 4 4 3 2 3 3 3 3 3 4 5 5 5 6 6 6 6 6 6 6 5 5 5 6 6 6
11 14 11 13 4 -2 6 5 7 10 8 7 7 5 5 6 6 5 4 3 3 3 3 3 3 3 4 6 7 6 6 6 6 6 6 6 6 5 5 5 6 5 6
12 7 12 2 18 11 7 8 8 9 8 8 6 6 5 6 6 5 5 4 3 3 3 3 3 4 5 7 7 7 6 6 5 6 6 6 6 5 5 6 5 5 6
-8 4 19 14 -1 7 7 9 9 8 7 7 7 5 5 5 6 6 5 5 3 3 3 3 4 4 5 6 7 7 6 6 5 6 6 6 6 6 5 6 5 5 8
-10 0 15 5 2 -1 5 7 10 9 8 7 7 5 6 5 6 6 6 5 4 4 4 4 4 4 5 5 6 7 7 6 5 5 5 6 6 6 7 7 5 7 7
13 24 0 14 11 11 4 9 7 9 9 9 7 6 4 6 4 6 5 5 5 5 4 4 4 4 5 5 5 6 7 6 6 5 5 5 6 6 7 5 6 7 6
14 -17 -2 -4 23 11 3 0 7 6 7 9 9 8 6 5 5 5 5 5 6 5 5 5 5 4 4 5 5 5 7 5 6 5 4 6 6 7 5 7 8 6 5
-7 16 -1 -7 7 17 6 4 1 8 7 7 6 7 7 6 5 6 5 5 5 6 6 5 5 5 4 5 5 5 7 6 6 5 5 5 7 5 6 7 6 5 5
-10 -3 -1 24 9 9 9 4 2 2 7 8 7 8 7 7 6 6 5 6 5 6 6 5 5 5 4 5 6 5 6 6 5 5 5 6 6 6 6 6 5 4 5
6 1 17 -22 6 6 10 7 6 4 4 5 7 7 7 7 6 7 6 5 5 7 5 5 5 5 5 5 6 5 5 6 6 5 5 7 4 5 7 8 5 5 5
11 2 -14 -2 3 10 10 10 7 7 6 3 5 8 6 7 8 7 6 5 6 7 5 5 5 5 5 5 5 5 5 6 6 5 5 6 4 6 7 6 8 5 5
Height
3120 3122 3126 3129 3133 3136 3138 3140 3144 3146 3149 3151 3152 3154 3155 3157 3159 3161 3162 3163 3164 3165 3165 3166 3167 3168 3168 3170 3170 3170 3170 3171 3171 3171 3171 3171 3171 3171 3171 3172 3173 3173 3174
3117 3120 3123 3127 3131 3135 3136 3139 3142 3145 3148 3150 3151 3153 3155 3157 3158 3160 3161 3162 3163 3164 3165 3166 3166 3167 3168 3169 3170 3169 3170 3171 3171 3171 3171 3171 3171 3171 3172 3172 3173 3173 3174
3115 3118 3121 3124 3128 3131 3134 3137 3141 3144 3147 3148 3151 3152 3153 3155 3157 3159 3161 3162 3163 3163 3165 3165 3165 3166 3167 3168 3170 3169 3170 3171 3171 3171 3172 3171 3171 3171 3172 3173 3173 3174 3174
3113 3115 3119 3122 3126 3130 3132 3135 3139 3143 3145 3148 3150 3151 3152 3154 3156 3158 3160 3161 3161 3162 3164 3164 3165 3166 3167 3169 3169 3168 3170 3171 3171 3172 3173 3172 3171 3171 3171 3172 3173 3174 3174
3109 3112 3116 3121 3124 3128 3130 3134 3137 3141 3144 3146 3148 3149 3151 3153 3155 3157 3159 3160 3161 3163 3164 3164 3166 3166 3168 3169 3169 3169 3170 3171 3171 3173 3173 3173 3171 3171 3172 3172 3172 3173 3173
3107 3108 3112 3118 3121 3126 3128 3132 3134 3140 3142 3144 3146 3147 3150 3152 3154 3156 3158 3159 3161 3163 3163 3164 3167 3166 3167 3168 3168 3169 3170 3171 3172 3173 3173 3174 3173 3172 3172 3172 3172 3172 3172
3104 3105 3110 3115 3119 3122 3126 3130 3133 3138 3141 3143 3144 3146 3149 3151 3153 3155 3157 3159 3161 3162 3163 3165 3166 3166 3167 3167 3168 3169 3170 3171 3172 3173 3173 3173 3173 3172 3172 3171 3171 3171 3171
3102 3104 3108 3112 3116 3120 3124 3128 3131 3135 3138 3140 3142 3145 3148 3150 3152 3154 3156 3158 3161 3162 3162 3165 3165 3166 3166 3166 3168 3169 3171 3171 3171 3172 3172 3172 3172 3171 3171 3170 3169 3169 3169
3098 3101 3105 3108 3114 3118 3122 3126 3128 3132 3135 3138 3141 3143 3147 3149 3151 3153 3156 3157 3159 3160 3162 3164 3164 3165 3165 3166 3167 3168 3170 3171 3171 3171 3171 3171 3171 3170 3170 3169 3168 3167 3167
3092 3097 3101 3106 3111 3114 3119 3123 3126 3130 3132 3135 3139 3142 3145 3147 3149 3151 3155 3157 3158 3160 3162 3164 3164 3165 3165 3165 3167 3167 3169 3170 3169 3170 3170 3171 3170 3170 3169 3168 3167 3166 3165
3088 3092 3098 3103 3107 3111 3116 3119 3123 3127 3129 3133 3137 3138 3143 3145 3148 3150 3153 3155 3158 3159 3161 3162 3164 3165 3165 3165 3165 3167 3168 3169 3168 3169 3169 3169 3169 3168 3167 3166 3166 3164 3163
3085 3089 3094 3099 3103 3107 3112 3116 3121 3124 3127 3131 3133 3136 3141 3144 3146 3149 3151 3155 3156 3158 3160 3162 3163 3164 3163 3163 3164 3165 3167 3167 3167 3167 3167 3168 3168 3166 3166 3165 3164 3163 3162
3081 3087 3091 3095 3099 3104 3109 3113 3118 3121 3124 3128 3130 3134 3139 3142 3144 3147 3151 3152 3155 3157 3159 3160 3162 3163 3163 3162 3162 3164 3166 3166 3166 3165 3165 3166 3166 3165 3164 3164 3162 3161 3160
3071 3080 3086 3091 3096 3099 3105 3110 3114 3118 3121 3125 3128 3133 3137 3138 3141 3146 3147 3150 3153 3155 3157 3158 3160 3160 3160 3159 3161 3162 3164 3164 3164 3164 3163 3163 3163 3162 3162 3161 3160 3159 3157
3067 3075 3081 3087 3091 3095 3101 3105 3110 3113 3118 3122 3125 3130 3133 3136 3140 3143 3145 3148 3150 3153 3155 3157 3157 3158 3158 3158 3159 3160 3161 3161 3162 3161 3161 3161 3160 3160 3159 3159 3158 3157 3155
3062 3070 3075 3082 3087 3091 3097 3101 3105 3110 3115 3118 3123 3127 3130 3133 3137 3139 3143 3146 3148 3151 3153 3154 3155 3156 3156 3157 3157 3158 3158 3158 3158 3158 3158 3158 3158 3157 3156 3156 3155 3153 3152
3060 3065 3072 3077 3082 3086 3092 3096 3101 3106 3111 3115 3120 3122 3127 3130 3133 3136 3140 3143 3145 3148 3150 3152 3153 3154 3154 3155 3156 3155 3155 3155 3155 3155 3155 3155 3155 3154 3153 3153 3151 3149 3148
3052 3060 3066 3072 3079 3082 3085 3091 3096 3102 3107 3111 3115 3120 3123 3126 3129 3133 3136 3139 3142 3145 3147 3149 3150 3150 3151 3153 3153 3152 3151 3152 3152 3151 3151 3151 3151 3151 3149 3148 3147 3145 3143
3048 3055 3060 3065 3073 3077 3080 3086 3091 3096 3101 3107 3111 3115 3119 3122 3126 3130 3133 3135 3138 3141 3143 3145 3147 3147 3148 3149 3150 3149 3148 3148 3148 3148 3147 3147 3147 3146 3145 3144 3142 3140 3138
3043 3050 3054 3061 3068 3071 3075 3081 3085 3091 3096 3101 3106 3110 3114 3119 3122 3126 3129 3131 3135 3137 3138 3141 3143 3143 3144 3145 3146 3146 3145 3145 3144 3144 3143 3143 3142 3141 3140 3139 3137 3135 3132
3037 3042 3049 3056 3060 3064 3070 3076 3081 3086 3091 3095 3100 3105 3109 3114 3117 3121 3123 3127 3130 3132 3134 3137 3138 3139 3140 3141 3142 3142 3142 3141 3140 3139 3139 3138 3138 3137 3135 3134 3132 3129 3127
3034 3037 3043 3049 3056 3061 3066 3072 3076 3081 3086 3091 3096 3100 3104 3108 3112 3116 3119 3123 3125 3127 3130 3131 3134 3134 3135 3137 3137 3138 3138 3138 3136 3135 3134 3133 3132 3130 3129 3127 3125 3122 3120
3026 3034 3039 3045 3052 3056 3062 3064 3068 3075 3079 3083 3087 3092 3097 3103 3106 3110 3114 3117 3119 3122 3124 3126 3128 3130 3130 3132 3132 3133 3132 3132 3131 3130 3129 3127 3126 3125 3123 3120 3118 3115 3112
3022 3030 3035 3039 3044 3049 3054 3056 3062 3070 3073 3079 3083 3088 3092 3096 3099 3104 3109 3111 3114 3117 3119 3121 3123 3124 3124 3126 3127 3127 3127 3126 3125 3124 3125 3123 3122 3120 3118 3115 3111 3108 3104
3019 3026 3032 3034 3037 3042 3044 3048 3055 3063 3068 3071 3075 3081 3084 3089 3093 3099 3103 3105 3109 3112 3113 3115 3116 3118 3120 3121 3122 3121 3121 3120 3120 3118 3118 3117 3117 3113 3110 3108 3105 3101 3098
3015 3022 3025 3025 3029 3034 3037 3040 3048 3054 3059 3062 3067 3072 3077 3082 3086 3091 3095 3099 3102 3105 3107 3108 3110 3112 3113 3115 3116 3116 3116 3116 3115 3113 3112 3111 3110 3109 3106 3102 3098 3095 3092